Погода в Нджамене

Чад     12°07′38″N   15°04′40″E
темп.,
°C
ветер,
м/с
пор.,
м/с
влажн.,
%
обл.,
%
осадки,
мм/ч
давл.,
гПа
погр.,
м
8 марта, пн
пн801:00+25ссв511636 0.0 1009211
04:00+23ссв511698 0.0 1008210
07:00+23св512777 0.0 1010269
10:00+34св6840 0.0 1010619
13:00+39св4440 0.0 10061616
16:00+40ссв4350 0.0 10032427
19:00+30ссз4660 0.0 100659
22:00+28с5990 0.0 1008107
9 марта, вт
вт901:00+25ссв5970 0.0 1007147
04:00+24св5950 0.0 1007150
07:00+23всв4760 0.0 1009151
10:00+34в5740 0.0 1009675
13:00+40св33415 0.0 10051639
16:00+41ссв325100 0.0 10033353
19:00+31с46873 0.0 100456
22:00+30с4670 0.0 100657
10 марта, ср
ср1001:00+26ссв59190 0.0 1006126
04:00+24всв4670 0.0 100599
07:00+24всв4780 0.0 1008151
10:00+36всв6840 0.0 1008691
13:00+42всв4440 0.0 10042494
16:00+42всв3440 0.0 10024403
19:00+32с4670 0.0 100359
22:00+30с45100 0.0 100557
11 марта, чт
чт1101:00+27ссв46220 0.0 100484
04:00+25св45140 0.0 100551
07:00+25св23113 0.0 100630
10:00+38всв575100 0.0 1007958
13:00+43всв554100 0.0 10033732
16:00+43всв45481 0.0 10014691
19:00+32с59845 0.0 1002105
22:00+28с45170 0.0 100444
12 марта, пт
пт1201:00+27с45250 0.0 100478
04:00+21всв12240 0.0 100424
07:00+24ссв111726 0.0 100524
10:00+37в5751 0.0 1006699
13:00+43в66411 0.0 10022930
16:00+44в55456 0.0 10004717
19:00+33с34778 0.0 100132
22:00+29ссз451446 0.0 100355